Location: Bosdarros
(43.2167°N, 0.3667°W)
Time: 13:48:49
(UTC+00:00)

Daily predictions for brighter satellites

Satellite Brightness Start Highest point End
(mag) Time Altitude Azimuth Time Altitude Azimuth Time Altitude Azimuth
BREEZE-M DEB (TANK) 3.4 19:10:43 10° WSW 19:13:49 66° NNW 19:23:10 10° ENE
SAR-Lupe-4 3.5 19:16:05 10° NNE 19:19:42 77° ESE 19:23:16 10° S
FALCON 9 DEB 3.8 19:18:09 10° SSW 19:20:47 27° SE 19:23:25 10° ENE
Cosmos 389 Rocket 3.9 19:19:03 10° SE 19:21:43 20° E 19:24:24 10° NE
CZ-2C R/B 3.0 19:17:02 10° N 19:22:14 71° WNW 19:27:29 10° SSW
Cosmos 2098 Rocket 4.4 19:15:12 10° N 19:22:33 75° E 19:29:50 10° SSE
Cosmos 2322 4.0 19:18:02 10° NNW 19:23:41 74° WSW 19:29:19 10° SSE
CSL-04 Rocket 3.7 19:18:48 10° SSE 19:24:06 83° WSW 19:29:25 10° NNW
Ariane Rocket 3.8 19:19:54 10° SE 19:24:22 33° ENE 19:28:53 10° N
ERS-2 2.0 19:20:47 10° NNE 19:24:26 76° ESE 19:28:03 10° S
Nadezhda 4 Rocket 4.4 19:18:24 10° NNW 19:24:40 72° W 19:30:51 10° S
Cosmos 614 Rocket 4.2 19:20:00 10° S 19:24:52 45° ESE 19:29:43 10° NNE
COSMOS 2487 4.2 19:23:16 10° SW 19:26:26 37° WNW 19:29:39 10° N
Cosmos 2251 Rocket 3.6 19:21:16 10° S 19:26:34 66° ESE 19:31:52 10° NNE
ATLAS 3B R/B 2.9 19:23:51 10° NW 19:30:56 79° NE 19:38:17 10° SE
Cosmos 2279 Rocket 4.5 19:26:15 10° SSE 19:31:53 39° E 19:37:33 10° NNE
Cosmos 1980 4.3 19:33:43 10° NNW 19:39:06 42° ENE 19:44:12 11° SE
SL-16 R/B 4.0 19:35:32 10° N 19:39:13 17° NE 19:42:52 10° E
Cosmos 2360 Rocket 4.3 19:34:38 10° NW 19:39:13 26° WSW 19:43:46 10° SSW
Cosmos 2026 Rocket 3.9 19:34:03 10° N 19:40:09 73° E 19:46:17 10° SSE
Cosmos 2151 4.5 19:38:17 10° NNE 19:41:33 20° ENE 19:44:10 13° ESE
SME Rocket 3.8 19:37:32 10° N 19:41:34 67° WNW 19:47:02 10° SSW
FALCON 9 DEB 3.4 19:39:41 10° SSW 19:42:32 36° SE 19:45:23 10° ENE
Cosmos 1992 Rocket 4.4 19:39:52 10° NNW 19:45:02 66° WSW 19:50:11 10° S
Cosmos 1455 2.6 19:42:06 10° SSW 19:45:48 65° W 19:49:31 10° N
COSMOS 2455 4.1 19:42:34 10° SSE 19:46:36 19° ESE 19:50:40 10° ENE
SL-4 R/B 2.4 19:45:16 10° SSW 19:49:20 46° SE 19:53:43 10° ENE
IRS-1A Rocket 4.4 19:44:29 10° SSE 19:49:58 61° ENE 19:55:36 10° N
CZ-4 R/B 4.4 19:50:12 10° SW 19:52:50 16° W 19:55:28 10° NW
USA 186 2.4 19:49:37 10° S 19:52:51 56° W 19:55:57 10° NNW
BREEZE M DEB (TANK) 4.2 19:50:23 10° S 19:53:11 26° ESE 19:59:06 10° ENE
Cosmos 2219 Rocket 3.0 19:48:20 10° NW 19:53:51 52° WSW 19:59:19 10° S
BREEZE-M DEB (TANK) 3.5 19:52:22 10° W 19:54:27 24° SSW 19:57:33 10° SSE
OBJECT-B 0.8 19:54:21 10° S 19:57:33 80° WSW 20:00:49 10° NNW
Cosmos 1076 Rocket 3.7 19:53:43 10° N 19:57:59 54° E 20:01:45 13° SSE
COSMOS 2428 3.3 19:52:30 10° NNW 19:58:08 58° WSW 20:03:44 10° S
ATLAS 5 CENTAUR R/B 1.3 19:57:12 10° NW 19:59:02 47° SW 20:01:00 15° SSE
Meteor 2-1 Rocket 4.4 19:53:59 10° S 19:59:50 86° WNW 20:05:49 10° N
Cosmos 1634 Rocket 4.2 19:55:37 10° SSW 20:01:53 78° W 20:08:09 10° N
Cosmos 2344 3.8 19:56:22 10° SW 20:03:52 73° NW 20:11:45 10° NE
Cosmos 2292 Rocket 4.2 19:58:19 10° N 20:04:34 60° ENE 20:08:34 14° SSE
Cosmos 407 Rocket 3.5 20:00:25 10° S 20:05:24 56° ESE 20:10:28 10° NNE
ARIANE 5 R/B 4.5 20:04:04 13° E 20:05:35 15° ENE 20:08:06 10° NNE
SL-8 R/B 4.4 20:01:02 10° WNW 20:05:40 47° SW 20:09:04 17° SSE
Cosmos 1356 3.3 20:02:25 10° N 20:05:51 84° E 20:08:40 14° SSE
IRIDIUM 104 4.4 20:04:41 10° SSE 20:09:47 60° E 20:14:56 10° N
Cosmos 1023 Rocket 4.5 20:05:32 10° S 20:10:28 56° ESE 20:15:27 10° NNE
Meteor 2-3 Rocket 4.2 20:09:03 10° N 20:14:29 42° ENE 20:17:47 22° SE
Cosmos 44 Rocket 4.2 20:12:41 10° S 20:16:54 27° ESE 20:21:13 10° NE
Cosmos 405 Rocket 3.0 20:14:05 10° NNW 20:18:03 67° W 20:21:35 12° S
Cosmos 1140 Rocket 3.4 20:13:36 10° S 20:18:39 64° ESE 20:23:44 10° NNE
IRIDIUM 114 4.3 20:13:44 10° S 20:18:55 73° E 20:24:08 10° N
NOSS 0 Rocket 4.2 20:12:59 10° NNW 20:19:12 71° WSW 20:24:39 14° SSE
Cosmos 1812 Rocket 3.5 20:16:17 10° S 20:20:42 80° E 20:25:11 10° N
Timation 2 Rocket 4.0 20:18:58 10° SSW 20:25:29 65° ESE 20:31:45 10° NNE
CZ-2C R/B 4.1 20:21:52 10° NNE 20:26:02 39° E 20:27:43 28° SE
Cosmos 2237 Rocket 2.1 20:21:23 10° NNW 20:27:03 90° NNE 20:30:48 22° SSE
IRIDIUM 103 4.3 20:22:51 10° S 20:28:04 88° E 20:33:19 10° N
Cosmos 2180 Rocket 4.4 20:22:06 10° S 20:28:15 83° E 20:34:25 10° N
Abrixas rocket 3.8 20:27:43 10° NW 20:28:20 13° NNW 20:28:20 13° NNW
Meteor 2-21 4.4 20:23:32 10° N 20:29:36 74° E 20:34:06 19° SSE
Cosmos 1825 4.3 20:27:06 10° NNW 20:30:16 25° W 20:33:24 10° SSW
BREEZE M DEB (TANK) 3.5 20:23:48 10° WSW 20:33:36 62° NNW 20:36:34 11° NE
Spot 2 Rocket 4.4 20:32:07 26° ESE 20:33:51 33° ENE 20:38:21 10° N
Cosmos 1766 Rocket 4.4 20:31:52 10° NNE 20:35:45 31° ENE 20:36:22 29° E
FALCON 9 DEB 3.3 20:36:38 10° WSW 20:39:38 59° NNW 20:41:38 19° NE
Cosmos 2227 Rocket 2.1 20:34:36 10° SSW 20:40:16 83° ESE 20:45:58 10° NNE
Cosmos 2082 4.0 20:37:15 21° SSE 20:40:30 43° ESE 20:45:48 10° NE
Cosmos 1633 2.5 20:38:30 10° N 20:42:07 78° W 20:43:19 39° S
FALCON 9 DEB 3.9 20:41:22 10° WSW 20:44:18 44° NNW 20:46:28 16° NE
Okean 3 Rocket 4.2 20:40:42 10° N 20:44:58 39° ENE 20:45:39 37° E
Lacrosse 5 rocket 4.1 20:43:54 10° NNW 20:46:12 14° N 20:48:33 10° NE
Cosmos 1655 Rocket 3.9 20:40:30 10° N 20:46:49 87° E 20:50:54 23° S
Cosmos 2297 Rocket 2.5 20:41:20 10° SSW 20:46:57 70° WNW 20:52:37 10° NNE
Cosmos 1869 3.7 20:47:58 43° E 20:47:58 43° E 20:51:37 10° NNE
Resurs 01 Rocket 1.7 20:46:10 28° S 20:48:27 74° W 20:52:55 10° NNW
Meteor 1-4 Rocket 3.6 20:50:30 31° NE 20:50:30 31° NE 20:52:49 10° NNE
Genesis I 3.2 20:47:42 10° NW 20:51:45 83° SW 20:52:33 56° SSE
Cosmos 2219 3.6 20:50:40 10° SW 20:56:13 65° WNW 21:01:50 10° NNE
FALCON 9 DEB 4.5 20:53:35 10° W 20:56:24 34° NNW 20:58:12 18° NNE
Cosmos 2084 Rocket 4.1 20:55:42 10° SW 20:59:34 51° NW 21:03:32 10° NNE
Cosmos 1190 Rocket 4.5 20:57:59 10° SSW 21:03:09 61° WNW 21:08:20 10° NNE
Cosmos 1763 Rocket 4.1 20:58:50 10° N 21:03:33 38° ENE 21:04:17 36° E
Terra 3.0 21:03:52 27° ENE 21:04:04 27° ENE 21:08:03 10° N
Meteor 2-8 Rocket 4.4 21:02:57 33° SSE 21:05:44 68° E 21:11:50 10° NNE
BREEZE-M DEB (TANK) 3.2 21:07:22 10° WNW 21:08:46 36° NW 21:08:46 36° NW
MINOTAUR IV R/B 4.5 21:08:47 10° NNW 21:13:19 87° WSW 21:13:51 69° SSE
SPOT 5 3.2 21:14:08 45° ENE 21:14:16 45° ENE 21:18:51 10° N
Cosmos-2242 3.9 21:12:34 19° SW 21:15:21 46° WNW 21:19:31 10° N
SPOT 1/Viking Rocket 3.5 21:14:17 47° S 21:15:51 82° WSW 21:21:07 10° NNW
NOSS 3-1 (C) 4.5 21:09:32 10° NNW 21:16:46 52° NE 21:20:23 33° ESE
Cosmos 2151 4.4 21:15:01 10° NNW 21:18:56 34° W 21:20:45 24° SW
Cosmos 676 Rocket 4.2 21:17:21 16° SSW 21:21:33 69° WNW 21:26:44 10° NNE
SL-16 R/B 2.1 21:18:25 10° NNW 21:24:09 89° WSW 21:25:19 58° SSE
USA 215 3.4 21:21:35 38° E 21:24:10 65° NE 21:30:39 10° NW
SL-4 R/B 3.2 21:24:46 10° W 21:29:04 46° NNW 21:33:33 10° NE
COSMOS 2455 3.0 21:25:53 10° SW 21:31:53 73° WNW 21:37:56 10° NNE
ERS-1 Rocket 2.8 21:33:53 74° E 21:34:05 76° ENE 21:39:06 10° N
Cosmos 1408 Rocket 3.9 21:31:14 10° N 21:34:52 57° NNE 21:34:52 57° NNE
Cosmos 2221 3.3 21:41:54 43° NNE 21:41:54 43° NNE 21:44:51 10° NNE
ARIANE 5 R/B 3.0 21:41:36 58° W 21:41:36 58° W 21:45:55 10° NNW
Cosmos 1862 4.4 21:38:51 10° N 21:41:30 39° NNE 21:41:30 39° NNE
Meteor 2-15 Rocket 4.3 21:43:55 67° SSE 21:44:41 78° E 21:50:47 10° N
Cosmos 1943 4.0 21:44:40 10° N 21:49:55 38° ENE 21:50:06 38° ENE
Cosmos 1745 Rocket 4.4 21:47:17 10° N 21:53:22 48° ENE 21:53:25 48° ENE
Cosmos 44 Rocket 4.4 21:53:21 10° WSW 21:58:12 45° NW 22:03:13 10° NNE
Cosmos 1741 Rocket 4.1 22:05:12 75° NNW 22:05:12 75° NNW 22:10:13 10° NNE
S3M 4.2 22:05:25 58° E 22:05:25 58° E 22:11:22 10° NNE
BREEZE-M DEB (TANK) 3.8 22:00:01 10° WNW 22:06:19 54° NW 22:06:19 54° NW
Cosmos 1850 Rocket 4.2 22:08:07 69° NW 22:08:07 69° NW 22:13:10 10° NNE
Cosmos 2263 Rocket 2.5 22:16:15 57° NE 22:16:15 57° NE 22:20:39 10° NNE
Aureole 1 Rocket 3.8 22:17:34 66° NNW 22:17:34 66° NNW 22:21:43 10° NNE
SL-08 R/B 4.4 22:16:03 10° NNW 22:22:15 74° W 22:22:24 74° WSW
Cosmos 1386 Rocket 4.4 22:16:46 10° N 22:22:22 73° NE 22:22:22 73° NE
USA 229 DEB 3.8 22:18:49 10° NW 22:26:13 80° NE 22:27:01 72° ESE
USA 229 3.8 22:18:55 10° NW 22:26:19 79° NE 22:27:08 71° ESE
Lacrosse 5 rocket 3.2 22:22:32 10° NNW 22:25:34 30° N 22:25:34 30° N
Cosmos 1553 Rocket 4.2 22:33:03 58° W 22:33:25 59° W 22:39:27 10° N
Cosmos 841 Rocket 4.2 22:32:24 10° NNW 22:36:20 49° NW 22:36:20 49° NW
Cosmos 1603 4.0 22:33:06 10° NNW 22:37:52 63° NNW 22:37:52 63° NNW
Terra 3.3 22:42:44 31° WNW 22:42:44 31° WNW 22:46:01 10° NNW
NOSS 3-1 (A) 4.0 22:36:35 10° NW 22:44:15 89° SW 22:45:03 76° SSE
USA 215 4.2 23:08:55 35° W 23:08:55 35° W 23:13:28 10° WNW
SL-4 R/B 4.2 23:05:30 10° WNW 23:09:09 29° N 23:09:09 29° N
Cosmos 2315 Rocket 4.3 23:16:01 65° NNW 23:16:01 65° NNW 23:21:30 10° N
ATLAS 5 CENTAUR R/B 4.4 23:20:15 10° N 23:24:07 19° NE 23:27:06 14° ENE
SeaSat 1 3.8 23:27:47 10° NNE 23:31:05 36° NNW 23:31:05 36° NNW
Cosmos 2074 Rocket 4.4 23:36:09 10° N 23:41:12 58° NNE 23:41:12 58° NNE
USA 281 4.1 23:43:09 39° ENE 23:43:47 40° NE 23:49:49 10° N
